Flag for Norway Weather past 2 weeks in Randaberg, Norway

Now
58 °F

Clear.


Feels Like: 58 °F
Forecast: 55 / 65 °F
Wind: 1 mph from North

Location: Stavanger / Sola

Current Time: Sep 1, 2015 at 2:31:31 AM

Latest Report: Sep 1, 2015 at 2:00 AM


Visibility: 19 mi

Pressure: 29.89 "Hg

Humidity: 90%

Dew point: 55 °F

Location of RandabergLocation

Historic Weather in Randaberg — Graph

°F

Randaberg temperature yesterday

Maximum temperature yesterday: 64 °F (at 11:00 AM)
Minimum temperature yesterday: 54 °F (at 5:00 AM)
Average temperature yesterday: 59 °F

Past Weeks' High & Low Weather Summary

 TemperatureHumidityPressure
High78 °F (Aug 23, 3:00 PM)95% (Aug 26, 1:00 AM)30.25 "Hg (Aug 26, 1:00 AM)
Low54 °F (Aug 31, 5:00 AM)35% (Aug 17, 6:00 PM)29.47 "Hg (Aug 27, 1:00 PM)
Average65 °F68%29.97 "Hg
* Reported Aug 17 1:00 AM — Sep 1 1:00 AM, Randaberg, Weather by CustomWeather, © 2015

Note: Actual official high and low records may vary slightly from our data, if they occured in-between our weather recording intervals... More about our weather records

Advertising

Randaberg weather history for previous 24 hours

 ConditionsComfort  
Time TempWeatherWind HumidityBarometerVisibility
1:00 AM
Tue, Sep 1
58 °FClear.1 mph89%29.91 "Hg19 mi
12:00 AM58 °FPassing clouds.2 mph86%29.93 "Hg28 mi
10:00 PM
Mon, Aug 31
59 °FClear.2 mph85%29.96 "Hg22 mi
9:00 PM59 °FPassing clouds.3 mph81%29.97 "Hg25 mi
8:00 PM60 °FSunny.2 mph80%29.97 "Hg28 mi
7:00 PM61 °FSunny.3 mph75%29.98 "Hg25 mi
6:00 PM61 °FSunny.3 mph73%29.99 "Hg25 mi
5:00 PM62 °FSunny.3 mph68%30.01 "Hg22 mi
4:00 PM62 °FPassing clouds.5 mph67%30.01 "Hg22 mi
3:00 PM63 °FSunny.5 mph69%30.03 "Hg19 mi
2:00 PM63 °FSunny.3 mph71%30.03 "Hg19 mi
1:00 PM62 °FScattered clouds.3 mph75%30.03 "Hg22 mi
12:00 PM62 °FOvercast.3 mph76%30.04 "Hg19 mi
11:00 AM64 °FOvercast.2 mph69%30.04 "Hg18 mi
10:00 AM62 °FPartly sunny.3 mph76%30.05 "Hg19 mi
9:00 AM59 °FScattered clouds.3 mph80%30.06 "Hg17 mi
8:00 AM56 °FSunny.3 mph87%30.06 "Hg19 mi
7:00 AM55 °FPartly sunny.3 mph88%30.06 "Hg19 mi
6:00 AM55 °FPassing clouds.3 mph90%30.07 "Hg19 mi
5:00 AM54 °FPassing clouds.3 mph93%30.07 "Hg16 mi
4:00 AM54 °FPassing clouds.1 mph93%30.07 "Hg16 mi
3:00 AM54 °FClear.2 mph93%30.07 "Hg14 mi
2:00 AM55 °FPassing clouds.2 mph91%30.08 "Hg14 mi
Weather by CustomWeather, © 2015

See weather overviewHow to use our weather pages